Regional Weather Roundup
Issued by NWS Sioux Falls, SD

Home | Current Version | Previous Version | Graphics & Text | Print | Product List | Glossary Off
Versions: 1 2 3 4 5 6 7 8 9 10 11 12 13 14 15 16 17 18 19 20 21 22 23 24 25 26 27 28 29 30 31 32 33 34 35 36 37 38 39 40 41 42 43 44 45 46 47 48 49 50

000
ASUS43 KFSD 222310
RWRFSD

WEATHER ROUNDUP FOR SE SOUTH DAKOTA/SW MINNESOTA/NW IOWA
NATIONAL WEATHER SERVICE SIOUX FALLS SD
600 PM CDT FRI MAY 22 2015

NOTE: "FAIR" INDICATES FEW OR NO CLOUDS BELOW 12,000 FEET WITH NO
SIGNIFICANT WEATHER AND OR OBSTRUCTIONS TO VISIBILITY.


SDZ038>040-050-052>070-230000-
SOUTHEAST SOUTH DAKOTA

CITY           SKY/WX    TMP DP  RH WIND       PRES   REMARKS
BROOKINGS      CLOUDY    73  34  23 S8        30.14F
CHAMBERLAIN    CLOUDY    65  43  45 S30G36    30.14S
HURON          CLOUDY    71  38  29 S15G21    30.12S
MADISON        MOCLDY    72  32  23 S10       30.15S
MITCHELL       CLOUDY    69  40  34 SW20G28   30.14S
SIOUX FALLS    CLOUDY    69  40  34 S12       30.15S
WINNER         CLOUDY    59  41  51 S23       30.16R
YANKTON        CLOUDY    63  39  42 S21G30    30.19R
$$

MNZ071-072-080-081-089-090-097-098-230000-
SOUTHWEST MINNESOTA

CITY           SKY/WX    TMP DP  RH WIND       PRES   REMARKS
FAIRMONT       CLOUDY    72  34  25 SE8       30.17F
JACKSON        CLOUDY    73  32  21 S7        30.18S
LUVERNE        CLOUDY    72  30  21 S13       30.16S
MARSHALL       PTSUNNY   73  34  23 SE8       30.14F
MONTEVIDEO     MOSUNNY   79  30  17 CALM      30.15F
REDWOOD FALLS  PTSUNNY   74  32  21 E7        30.15F
TRACY          CLOUDY    75  32  20 CALM      30.15F
WINDOM         CLOUDY    73  28  19 CALM      30.17F
WORTHINGTON    CLOUDY    73  30  20 S7        30.17S
$$

IAZ001>003-012>014-020>022-031-032-NEZ013-014-SDZ071-230000-
NORTHWEST IOWA

CITY           SKY/WX    TMP DP  RH WIND       PRES   REMARKS
CHEROKEE       CLOUDY    68  43  40 SW12      30.18R
DENISON        CLOUDY    63  43  48 SW18G28   30.20R
ESTHERVILLE    CLOUDY    71  33  24 S7        30.17F
LE MARS        CLOUDY    70  39  32 SW14      30.19R
ORANGE CITY    CLOUDY    68  39  34 SW15      30.18S
SHELDON        CLOUDY    72  32  23 S9        30.15F
SIOUX CITY     CLOUDY    65  41  41 SW20      30.21R
SPENCER        CLOUDY    73  33  23 CALM      30.17F
STORM LAKE     CLOUDY    70  39  32 SW14G21   30.19S
$$

ABBREVIATIONS USED IN REMARKS
   TC - TEMPERATURE IN CELSIUS
  WCI - WIND CHILL INDEX
   HX - HEAT INDEX
  VSB - VISIBILITY




USA.gov is the U.S. government's official web portal to all federal, state and local government web resources and services.